Tracking 19245 objects as of 17-Aug-2018
HD Live streaming from Space Station
objects crossing your sky now

COSMOS 1058

Track COSMOS 1058 now!
10-day predictions
COSMOS 1058 is classified as:


NORAD ID: 11135
Int'l Code: 1978-109H
Perigee: 1,487.5 km
Apogee: 1,544.5 km
Inclination: 74.0 °
Period: 116.2 minutes
Semi major axis: 7887 km
RCS: 0.7109 m2 (medium)
Launch date: December 5, 1978
Source: Commonwealth of Independent States (former USSR) (CIS)
Launch site: PLESETSK MISSILE AND SPACE COMPLEX (PKMTR)
aabbcc
Your satellite tracking list
Your tracking list is empty




NASA's NSSDC Master Catalog

Two Line Element Set (TLE):
1 11135U 78109H   18228.83039205 -.00000021 +00000-0 -46024-4 0  9992
2 11135 074.0164 172.4378 0036132 136.3951 252.1665 12.39463832796189
Source of the keplerian elements: AFSPC